�������l�o���
Date,Time,MP-1(��Sv/h),MP-2(��Sv/h),MP-3(��Sv/h),MP-4(��Sv/h),MP-5(��Sv/h),MP-6(��Sv/h),MP-7(��Sv/h),MP-8(��Sv/h),����,����(m/s),���J
2018/08/17,00:00,0.827,1.215,0.858,1.529,1.099,0.470,0.828,0.786,���k��,11.1,��
2018/08/17,00:10,0.829,1.211,0.858,1.526,1.102,0.472,0.826,0.784,���k��,10.0,��
2018/08/17,00:20,0.829,1.214,0.858,1.527,1.100,0.471,0.828,0.784,��,9.7,��
2018/08/17,00:30,0.829,1.213,0.856,1.527,1.102,0.470,0.827,0.785,��,10.9,��
2018/08/17,00:40,0.829,1.214,0.857,1.527,1.100,0.471,0.826,0.783,���k��,8.5,��
2018/08/17,00:50,0.831,1.210,0.860,1.530,1.098,0.472,0.826,0.784,���k��,8.0,��
2018/08/17,01:00,0.829,1.213,0.858,1.527,1.100,0.472,0.827,0.781,���k��,10.8,��
2018/08/17,01:10,0.829,1.213,0.858,1.527,1.102,0.471,0.827,0.784,���k��,10.5,��
2018/08/17,01:20,0.830,1.213,0.859,1.530,1.100,0.471,0.827,0.783,���k��,9.7,��
2018/08/17,01:30,0.830,1.212,0.859,1.532,1.102,0.473,0.827,0.783,���k��,8.3,��
2018/08/17,01:40,0.828,1.215,0.859,1.531,1.098,0.472,0.827,0.784,���k��,7.6,��
2018/08/17,01:50,0.830,1.215,0.861,1.530,1.101,0.473,0.828,0.783,���k��,5.9,��
2018/08/17,02:00,0.828,1.214,0.860,1.531,1.102,0.472,0.826,0.784,�k��,5.2,��
2018/08/17,02:10,0.827,1.215,0.860,1.533,1.104,0.470,0.826,0.783,�k�k��,4.3,��
2018/08/17,02:20,0.829,1.216,0.861,1.534,1.102,0.471,0.827,0.784,�k,4.2,��
2018/08/17,02:30,0.832,1.216,0.860,1.534,1.102,0.472,0.828,0.785,�k,4.7,��
2018/08/17,02:40,0.832,1.219,0.860,1.534,1.103,0.472,0.826,0.784,�k,5.2,��
2018/08/17,02:50,0.832,1.217,0.861,1.537,1.105,0.473,0.829,0.781,�k�k��,6.9,��
2018/08/17,03:00,0.832,1.216,0.860,1.532,1.104,0.471,0.828,0.784,�k,6.5,��
2018/08/17,03:10,0.832,1.216,0.863,1.532,1.103,0.472,0.825,0.784,�k,6.9,��
2018/08/17,03:20,0.832,1.216,0.861,1.534,1.105,0.471,0.828,0.784,�k�k��,7.9,��
2018/08/17,03:30,0.830,1.218,0.861,1.533,1.105,0.472,0.827,0.783,�k�k��,7.0,��
2018/08/17,03:40,0.832,1.217,0.860,1.535,1.101,0.471,0.827,0.784,�k,6.9,��
2018/08/17,03:50,0.831,1.217,0.858,1.534,1.106,0.472,0.828,0.784,�k�k��,7.1,��
2018/08/17,04:00,0.831,1.217,0.861,1.535,1.102,0.471,0.828,0.784,�k�k��,7.9,��
2018/08/17,04:10,0.831,1.217,0.859,1.535,1.102,0.471,0.829,0.783,�k�k��,6.9,��
2018/08/17,04:20,0.832,1.218,0.859,1.534,1.103,0.473,0.829,0.783,�k�k��,5.1,��
2018/08/17,04:30,0.830,1.219,0.860,1.534,1.103,0.470,0.827,0.784,�k��,5.0,��
2018/08/17,04:40,0.833,1.216,0.860,1.537,1.103,0.471,0.830,0.783,���k��,5.8,��
2018/08/17,04:50,0.830,1.214,0.860,1.540,1.104,0.471,0.827,0.785,���k��,5.5,��
2018/08/17,05:00,0.830,1.219,0.859,1.534,1.105,0.472,0.826,0.783,���k��,6.7,��
2018/08/17,05:10,0.833,1.220,0.860,1.534,1.103,0.471,0.829,0.783,���k��,6.9,��
2018/08/17,05:20,0.829,1.218,0.859,1.534,1.103,0.471,0.827,0.782,���k��,6.0,��
2018/08/17,05:30,0.830,1.217,0.861,1.535,1.105,0.471,0.827,0.782,���k��,7.1,��
2018/08/17,05:40,0.831,1.219,0.858,1.537,1.104,0.471,0.828,0.784,���k��,6.7,��
2018/08/17,05:50,0.830,1.218,0.859,1.536,1.104,0.470,0.828,0.786,��,6.5,��
2018/08/17,06:00,0.830,1.218,0.857,1.536,1.104,0.471,0.828,0.785,���k��,6.3,��
2018/08/17,06:10,0.832,1.217,0.858,1.535,1.106,0.471,0.827,0.784,���k��,5.5,��
2018/08/17,06:20,0.831,1.219,0.861,1.537,1.104,0.470,0.827,0.784,���k��,5.4,��
2018/08/17,06:30,0.829,1.218,0.862,1.539,1.099,0.473,0.829,0.783,���k��,5.1,��
2018/08/17,06:40,0.832,1.218,0.861,1.538,1.102,0.472,0.827,0.784,���k��,6.2,��
2018/08/17,06:50,0.831,1.217,0.861,1.538,1.103,0.470,0.830,0.783,���k��,6.6,��
2018/08/17,07:00,0.833,1.219,0.861,1.539,1.102,0.470,0.829,0.784,���k��,7.1,��
2018/08/17,07:10,0.831,1.216,0.862,1.538,1.105,0.472,0.827,0.786,���k��,7.7,��
2018/08/17,07:20,0.833,1.217,0.859,1.539,1.103,0.472,0.827,0.783,���k��,9.0,��
2018/08/17,07:30,0.834,1.217,0.860,1.538,1.102,0.470,0.827,0.785,���k��,11.0,��
2018/08/17,07:40,0.833,1.216,0.860,1.539,1.106,0.470,0.828,0.784,�k��,10.8,��
2018/08/17,07:50,0.832,1.218,0.861,1.538,1.105,0.472,0.827,0.785,�k��,12.4,��
2018/08/17,08:00,0.834,1.221,0.860,1.539,1.105,0.469,0.826,0.785,�k��,11.9,��
2018/08/17,08:10,0.835,1.222,0.860,1.535,1.106,0.471,0.829,0.783,�k��,11.6,��
2018/08/17,08:20,0.832,1.221,0.862,1.538,1.106,0.472,0.827,0.781,�k��,9.4,��
2018/08/17,08:30,0.832,1.222,0.859,1.540,1.107,0.470,0.829,0.783,���k��,8.6,��
2018/08/17,08:40,0.833,1.226,0.860,1.538,1.107,0.470,0.827,0.782,���k��,9.8,��
2018/08/17,08:50,0.834,1.223,0.859,1.539,1.105,0.472,0.829,0.783,���k��,12.7,��
2018/08/17,09:00,0.833,1.223,0.862,1.540,1.105,0.472,0.828,0.782,���k��,10.6,��
2018/08/17,09:10,0.835,1.224,0.862,1.540,1.109,0.471,0.829,0.783,���k��,13.0,��
2018/08/17,09:20,0.837,1.223,0.862,1.539,1.106,0.471,0.828,0.783,�k��,11.6,��
2018/08/17,09:30,0.835,1.227,0.861,1.541,1.109,0.472,0.829,0.784,�k��,12.1,��
2018/08/17,09:40,0.834,1.225,0.863,1.542,1.110,0.473,0.829,0.783,�k��,12.7,��
2018/08/17,09:50,0.838,1.228,0.865,1.542,1.111,0.474,0.827,0.783,�k��,13.0,��
2018/08/17,10:00,0.838,1.227,0.864,1.544,1.111,0.473,0.830,0.783,�k��,11.3,��
2018/08/17,10:10,0.836,1.230,0.866,1.543,1.112,0.472,0.828,0.783,�k��,13.6,��
2018/08/17,10:20,0.838,1.228,0.862,1.544,1.114,0.474,0.829,0.783,�k�k��,12.7,��
2018/08/17,10:30,0.838,1.229,0.862,1.545,1.115,0.473,0.829,0.783,�k��,11.8,��
2018/08/17,10:40,0.838,1.230,0.864,1.547,1.112,0.474,0.830,0.784,�k��,11.1,��
2018/08/17,10:50,0.838,1.231,0.865,1.547,1.113,0.472,0.831,0.783,�k��,10.2,��
2018/08/17,11:00,0.838,1.233,0.865,1.543,1.115,0.471,0.831,0.784,�k��,14.2,��
2018/08/17,11:10,0.839,1.231,0.867,1.547,1.114,0.472,0.830,0.785,���k��,10.2,��
2018/08/17,11:20,0.839,1.230,0.865,1.549,1.117,0.471,0.831,0.784,�k��,11.6,��
2018/08/17,11:30,0.841,1.232,0.864,1.549,1.116,0.471,0.831,0.784,�k��,9.7,��
2018/08/17,11:40,0.840,1.235,0.867,1.547,1.114,0.473,0.831,0.786,�k��,9.0,��
2018/08/17,11:50,0.840,1.234,0.869,1.550,1.119,0.473,0.830,0.784,�k��,10.9,��
2018/08/17,12:00,0.839,1.234,0.867,1.551,1.117,0.473,0.832,0.786,�k��,12.0,��
2018/08/17,12:10,0.841,1.236,0.868,1.549,1.118,0.474,0.832,0.785,�k��,9.8,��
2018/08/17,12:20,0.841,1.238,0.866,1.551,1.119,0.474,0.833,0.784,���k��,10.6,��
2018/08/17,12:30,0.841,1.238,0.870,1.554,1.120,0.473,0.832,0.786,�k��,9.1,��
2018/08/17,12:40,0.841,1.239,0.869,1.551,1.122,0.472,0.831,0.785,�k��,7.0,��
2018/08/17,12:50,0.842,1.237,0.869,1.552,1.121,0.471,0.833,0.785,�k��,7.9,��
2018/08/17,13:00,0.841,1.239,0.866,1.553,1.122,0.470,0.831,0.786,�k��,7.8,��
2018/08/17,13:10,0.842,1.238,0.868,1.554,1.122,0.471,0.832,0.786,�k�k��,9.3,��
2018/08/17,13:20,0.843,1.238,0.869,1.553,1.120,0.471,0.830,0.785,�k�k��,10.8,��
2018/08/17,13:30,0.845,1.240,0.869,1.553,1.121,0.471,0.829,0.787,�k��,11.6,��
2018/08/17,13:40,0.843,1.238,0.868,1.557,1.123,0.470,0.832,0.786,�k�k��,11.0,��
2018/08/17,13:50,0.844,1.241,0.870,1.556,1.123,0.471,0.831,0.786,�k��,10.5,��
2018/08/17,14:00,0.844,1.240,0.869,1.554,1.121,0.470,0.831,0.786,�k��,10.2,��
2018/08/17,14:10,0.844,1.241,0.869,1.554,1.122,0.471,0.833,0.785,�k��,10.0,��
2018/08/17,14:20,0.841,1.239,0.869,1.559,1.121,0.470,0.832,0.784,�k��,9.5,��
2018/08/17,14:30,0.842,1.242,0.870,1.554,1.122,0.471,0.832,0.785,�k��,8.9,��
2018/08/17,14:40,0.843,1.239,0.872,1.556,1.124,0.473,0.831,0.785,�k��,8.6,��
2018/08/17,14:50,0.842,1.240,0.872,1.555,1.123,0.472,0.831,0.786,�k��,9.9,��
2018/08/17,15:00,0.844,1.243,0.871,1.556,1.123,0.471,0.831,0.786,�k��,9.9,��
2018/08/17,15:10,0.844,1.241,0.872,1.557,1.122,0.473,0.833,0.787,�k��,7.5,��
2018/08/17,15:20,0.843,1.244,0.872,1.557,1.125,0.472,0.833,0.787,�k��,7.6,��
2018/08/17,15:30,0.843,1.242,0.871,1.558,1.125,0.472,0.832,0.787,�k��,9.0,��
2018/08/17,15:40,0.845,1.241,0.870,1.559,1.124,0.471,0.834,0.785,�k��,9.4,��
2018/08/17,15:50,0.844,1.243,0.870,1.561,1.125,0.472,0.833,0.786,�k��,8.6,��
2018/08/17,16:00,0.847,1.243,0.871,1.557,1.123,0.472,0.831,0.786,�k��,10.5,��
2018/08/17,16:10,0.848,1.242,0.871,1.561,1.126,0.473,0.834,0.787,�k��,8.3,��
2018/08/17,16:20,0.847,1.241,0.872,1.561,1.126,0.472,0.833,0.786,�k��,7.7,��
2018/08/17,16:30,0.843,1.246,0.872,1.563,1.126,0.472,0.833,0.785,�k��,5.7,��
2018/08/17,16:40,0.845,1.244,0.872,1.558,1.125,0.474,0.833,0.785,�k��,7.4,��
2018/08/17,16:50,0.846,1.242,0.873,1.560,1.128,0.473,0.831,0.786,�k�k��,8.4,��
2018/08/17,17:00,0.844,1.246,0.871,1.564,1.126,0.475,0.832,0.784,�k�k��,9.1,��
2018/08/17,17:10,0.845,1.244,0.872,1.562,1.128,0.475,0.832,0.785,�k�k��,7.7,��
2018/08/17,17:20,0.845,1.243,0.872,1.562,1.126,0.475,0.833,0.788,�k�k��,6.5,��
2018/08/17,17:30,0.845,1.243,0.871,1.563,1.125,0.474,0.832,0.788,�k�k��,5.7,��
2018/08/17,17:40,0.843,1.243,0.870,1.561,1.126,0.475,0.832,0.787,�k�k��,5.6,��
2018/08/17,17:50,0.843,1.241,0.871,1.561,1.123,0.475,0.831,0.787,�k�k��,6.3,��
2018/08/17,18:00,0.845,1.243,0.872,1.562,1.125,0.475,0.831,0.786,�k�k��,4.9,��
2018/08/17,18:10,0.843,1.245,0.869,1.562,1.127,0.473,0.831,0.789,�k,5.7,��
2018/08/17,18:20,0.846,1.244,0.871,1.564,1.127,0.472,0.831,0.790,�k�k��,7.2,��
2018/08/17,18:30,0.841,1.242,0.871,1.560,1.127,0.474,0.831,0.788,�k�k��,7.6,��
2018/08/17,18:40,0.843,1.244,0.871,1.562,1.125,0.472,0.832,0.788,�k,6.4,��
2018/08/17,18:50,0.843,1.245,0.872,1.566,1.127,0.473,0.831,0.787,�k�k��,5.8,��
2018/08/17,19:00,0.843,1.244,0.874,1.563,1.127,0.472,0.832,0.787,�k,6.2,��
2018/08/17,19:10,0.841,1.244,0.873,1.567,1.128,0.473,0.832,0.787,�k�k��,7.4,��
2018/08/17,19:20,0.845,1.246,0.875,1.568,1.131,0.472,0.831,0.789,�k��,5.8,��
2018/08/17,19:30,0.843,1.244,0.874,1.567,1.128,0.474,0.831,0.787,�k��,6.0,��
2018/08/17,19:40,0.842,1.247,0.874,1.566,1.129,0.471,0.832,0.788,�k��,4.2,��
2018/08/17,19:50,0.842,1.246,0.873,1.565,1.125,0.473,0.832,0.787,�k��,3.1,��
2018/08/17,20:00,0.842,1.247,0.875,1.565,1.125,0.472,0.832,0.789,�k�k��,2.6,��
2018/08/17,20:10,0.843,1.246,0.873,1.566,1.130,0.472,0.833,0.787,�k�k��,2.3,��
2018/08/17,20:20,0.844,1.245,0.873,1.565,1.127,0.472,0.832,0.788,�k,2.5,��
2018/08/17,20:30,0.845,1.246,0.873,1.564,1.126,0.472,0.833,0.789,�k,2.5,��
2018/08/17,20:40,0.844,1.243,0.871,1.565,1.130,0.471,0.832,0.787,�k�k��,2.3,��
2018/08/17,20:50,0.844,1.247,0.871,1.564,1.125,0.473,0.832,0.789,�k��,2.0,��
2018/08/17,21:00,0.845,1.245,0.873,1.566,1.128,0.473,0.831,0.787,�k��,2.6,��
2018/08/17,21:10,0.844,1.244,0.870,1.564,1.128,0.473,0.831,0.788,�k�k��,2.0,��
2018/08/17,21:20,0.843,1.242,0.873,1.565,1.127,0.473,0.834,0.786,���k��,3.0,��
2018/08/17,21:30,0.844,1.244,0.871,1.563,1.126,0.473,0.831,0.788,�k��,3.5,��
2018/08/17,21:40,0.842,1.245,0.872,1.564,1.126,0.471,0.831,0.788,�k��,3.3,��
2018/08/17,21:50,0.843,1.243,0.871,1.565,1.126,0.473,0.831,0.786,�k��,3.0,��
2018/08/17,22:00,0.842,1.245,0.871,1.566,1.127,0.472,0.833,0.786,�k��,3.5,��
2018/08/17,22:10,0.843,1.246,0.872,1.564,1.126,0.472,0.829,0.786,�k��,3.8,��
2018/08/17,22:20,0.844,1.246,0.874,1.565,1.124,0.472,0.831,0.787,�k��,4.2,��
2018/08/17,22:30,0.843,1.245,0.870,1.564,1.127,0.472,0.832,0.787,�k��,5.0,��
2018/08/17,22:40,0.843,1.247,0.870,1.566,1.128,0.473,0.832,0.788,�k��,5.6,��
2018/08/17,22:50,0.842,1.243,0.871,1.564,1.126,0.473,0.830,0.786,�k��,6.8,��
2018/08/17,23:00,0.842,1.244,0.872,1.567,1.124,0.474,0.833,0.787,�k��,6.8,��
2018/08/17,23:10,0.842,1.246,0.874,1.564,1.126,0.473,0.832,0.785,�k��,6.2,��
2018/08/17,23:20,0.843,1.243,0.871,1.565,1.126,0.471,0.830,0.788,�k�k��,6.3,��
2018/08/17,23:30,0.843,1.246,0.872,1.567,1.127,0.474,0.831,0.787,�k�k��,5.4,��
2018/08/17,23:40,0.842,1.246,0.874,1.564,1.128,0.472,0.831,0.786,�k�k��,6.1,��
2018/08/17,23:50,0.842,1.247,0.875,1.566,1.125,0.473,0.832,0.787,�k�k��,4.7,��
